Content
SEND FEEDBACK

Daily
Averages
Monthly
Summary
United States of America

MOUNT SHASTA, CALIFORNIA


Home > North America > United States > California
Elevation: 3679 feet     Latitude: 41 19N     Longitude: 122 19W

WEATHER
 
SELECT A DAY
Number of Records: 231,538;   Date Range: 1/1/95 - 9/3/14
 
SHARE

PRINT THIS DATA

[ ← Previous Day ]
WEATHER ALMANAC - SEPTEMBER 19, 2013
[ Next Day → ]
[ °C ]   °F
Weather ElementAverageHighLow
Temperature58.3 °F82 °F (3:56 pm)37.9 °F (5:56 am)
Dewpoint32.3 °F39 °F (9:56 am)24.1 °F (1:56 pm)
Humidity45 %79 % (3:56 am)13 % (1:56 pm)
Barometer29.96 in30.05 in (1:56 am)29.88 in (4:56 pm)
Wind Speed0.7 mph4.6 mph (1:56 pm)
Weather ElementAverage
Visibility10 mi
Wind DirectionNNE (7 °)

Weather ElementTotal
Precipitation---
Heating Degree Days5.1 (Base 65)
Growing Degree Days10 (Base 50)
Averaged from 23 records on September 19, 2013
WEATHER CONDITIONS BREAKOUT
WIND DIRECTION BREAKOUT
WEATHER BY HOUR - SEPTEMBER 19, 2013
[ °C ]   °F
Local TimeTemperatureDewpointHumidityBarometerVisibilityWind DirectionWind SpeedGust SpeedPrecipitationEventsConditions
1:56 AM41.0 °F34.0 °F76 %30.05 in10.0 miNE (50°)3.5 mphClear
2:56 AM42.1 °F34.0 °F73 %30.03 in10.0 miENE (60°)3.5 mphClear
3:56 AM39.0 °F33.1 °F79 %30.03 in10.0 miCalmClear
4:56 AM39.0 °F32.0 °F76 %30.02 in10.0 miCalmClear
5:56 AM37.9 °F30.9 °F76 %30.03 in10.0 miNE (50°)3.5 mphClear
6:56 AM37.9 °F30.9 °F76 %30.05 in10.0 miCalmClear
7:56 AM41.0 °F33.1 °F73 %30.05 in10.0 miCalmClear
8:56 AM53.1 °F37.0 °F55 %30.03 in10.0 miCalmClear
9:56 AM64.9 °F39.0 °F39 %30.01 in10.0 miCalmClear
10:56 AM68.0 °F37.9 °F33 %30.00 in10.0 miCalmClear
11:56 AM73.0 °F37.9 °F28 %29.97 in10.0 miCalmClear
12:56 PM79.0 °F35.1 °F20 %29.94 in10.0 miCalmClear
1:56 PM80.1 °F24.1 °F13 %29.92 in10.0 miVariable4.6 mphClear
2:56 PM81.0 °F28.9 °F15 %29.90 in10.0 miCalmClear
3:56 PM82.0 °F28.9 °F14 %29.89 in10.0 miCalmClear
4:56 PM78.1 °F28.9 °F17 %29.88 in10.0 miCalmClear
5:56 PM75.0 °F28.0 °F18 %29.88 in10.0 miCalmClear
6:56 PM66.9 °F30.9 °F26 %29.89 in10.0 miCalmClear
7:56 PM59.0 °F33.1 °F38 %29.91 in10.0 miCalmClear
8:56 PM55.9 °F32.0 °F40 %29.91 in10.0 miCalmClear
9:56 PM51.1 °F32.0 °F48 %29.90 in10.0 miCalmClear
10:56 PM48.9 °F30.9 °F50 %29.89 in10.0 miCalmClear
11:56 PM46.9 °F30.0 °F52 %29.88 in10.0 miCalmClear
Hourly data recorded from KMHS, located miles away from Mount Shasta, California







STORIES FROM OUR PARTNERS